Previsão horária em a/p Chisinau International Airport

Hoje, 29 Setembro, Terça-feira

Tempo Temperatura Precipitação Vento Pressão Humidade
00:00 +17°C° 0 mm 2 m/s 758 mmHg 69%
01:00 +17°C° 0 mm 2 m/s 757 mmHg 71%
02:00 +16°C° 0 mm 2 m/s 756 mmHg 86%
03:00 +16°C° 0.1 mm 3 m/s 756 mmHg 86%
04:00 +17°C° 0.1 mm 3 m/s 756 mmHg 86%
05:00 +17°C° 0.1 mm 3 m/s 755 mmHg 87%
06:00 +18°C° 0.2 mm 4 m/s 755 mmHg 85%
07:00 +19°C° 0.2 mm 5 m/s 755 mmHg 84%
08:00 +19°C° 0 mm 6 m/s 754 mmHg 82%
09:00 +21°C° 0.3 mm 6 m/s 753 mmHg 77%
10:00 +22°C° 0.3 mm 6 m/s 753 mmHg 73%
11:00 +23°C° 0.3 mm 7 m/s 753 mmHg 68%
12:00 +22°C° 2.2 mm 6 m/s 752 mmHg 69%
13:00 +21°C° 2.2 mm 6 m/s 752 mmHg 71%
14:00 +20°C° 0 mm 5 m/s 751 mmHg 72%
15:00 +20°C° 0.9 mm 5 m/s 751 mmHg 74%
16:00 +19°C° 0.9 mm 5 m/s 751 mmHg 77%
17:00 +17°C° 0.9 mm 5 m/s 750 mmHg 80%
18:00 +16°C° 0 mm 5 m/s 750 mmHg 83%
19:00 +15°C° 0 mm 5 m/s 750 mmHg 86%
20:00 +15°C° 0 mm 4 m/s 750 mmHg 90%
21:00 +14°C° 0 mm 4 m/s 750 mmHg 90%
22:00 +14°C° 0 mm 4 m/s 750 mmHg 90%
23:00 +14°C° 0 mm 4 m/s 750 mmHg 90%

Amanhã, 30 Setembro, Quarta-feira

Tempo Temperatura Precipitação Vento Pressão Humidade
00:00 +14°C° 0 mm 3 m/s 750 mmHg 90%
01:00 +14°C° 0 mm 3 m/s 750 mmHg 90%
02:00 +14°C° 0 mm 2 m/s 750 mmHg 89%
03:00 +14°C° 0 mm 2 m/s 750 mmHg 90%
04:00 +13°C° 0 mm 3 m/s 750 mmHg 90%
05:00 +13°C° 0 mm 3 m/s 750 mmHg 90%
06:00 +13°C° 0 mm 3 m/s 750 mmHg 84%
07:00 +14°C° 0 mm 3 m/s 750 mmHg 78%
08:00 +15°C° 0 mm 4 m/s 750 mmHg 72%
09:00 +17°C° 0 mm 4 m/s 750 mmHg 68%
10:00 +18°C° 0 mm 4 m/s 750 mmHg 63%
11:00 +19°C° 0 mm 4 m/s 750 mmHg 58%
12:00 +19°C° 0 mm 4 m/s 749 mmHg 57%
13:00 +19°C° 0 mm 4 m/s 749 mmHg 56%
14:00 +18°C° 0 mm 4 m/s 749 mmHg 56%
15:00 +19°C° 0 mm 4 m/s 749 mmHg 55%
16:00 +19°C° 0 mm 4 m/s 749 mmHg 54%
17:00 +19°C° 0 mm 3 m/s 749 mmHg 54%
18:00 +18°C° 0 mm 3 m/s 749 mmHg 58%
19:00 +16°C° 0 mm 3 m/s 749 mmHg 62%
20:00 +15°C° 0 mm 2 m/s 749 mmHg 67%
21:00 +14°C° 0 mm 2 m/s 749 mmHg 68%
22:00 +14°C° 0 mm 2 m/s 749 mmHg 70%
23:00 +14°C° 0 mm 2 m/s 749 mmHg 71%

Depois de amanhã, 1 Outubro, Quinta-feira

Tempo Temperatura Precipitação Vento Pressão Humidade
00:00 +13°C° 0 mm 2 m/s 749 mmHg 72%
01:00 +13°C° 0 mm 2 m/s 749 mmHg 73%
02:00 +13°C° 0 mm 2 m/s 749 mmHg 75%
03:00 +13°C° 0 mm 2 m/s 749 mmHg 74%
04:00 +13°C° 0 mm 2 m/s 749 mmHg 73%
05:00 +13°C° 0 mm 2 m/s 749 mmHg 72%
06:00 +14°C° 0 mm 2 m/s 749 mmHg 70%
07:00 +15°C° 0 mm 2 m/s 750 mmHg 68%
08:00 +16°C° 0 mm 2 m/s 750 mmHg 66%
09:00 +17°C° 0 mm 3 m/s 750 mmHg 60%
10:00 +19°C° 0 mm 3 m/s 750 mmHg 54%
11:00 +20°C° 0 mm 3 m/s 750 mmHg 48%
12:00 +21°C° 0 mm 4 m/s 750 mmHg 46%
13:00 +21°C° 0 mm 4 m/s 750 mmHg 45%
14:00 +21°C° 0 mm 4 m/s 750 mmHg 43%
15:00 +21°C° 0 mm 3 m/s 750 mmHg 45%
16:00 +21°C° 0 mm 3 m/s 750 mmHg 47%
17:00 +20°C° 0 mm 2 m/s 750 mmHg 50%
18:00 +19°C° 0 mm 2 m/s 750 mmHg 53%
19:00 +19°C° 0 mm 2 m/s 750 mmHg 56%
20:00 +18°C° 0 mm 2 m/s 751 mmHg 59%
21:00 +17°C° 0 mm 2 m/s 751 mmHg 64%
22:00 +16°C° 0 mm 3 m/s 751 mmHg 70%
23:00 +16°C° 0 mm 3 m/s 751 mmHg 76%

2 Outubro, Sexta-feira

Tempo Temperatura Precipitação Vento Pressão Humidade
00:00 +14°C° 0 mm 3 m/s 751 mmHg 79%
01:00 +15°C° 0 mm 2 m/s 751 mmHg 82%
02:00 +14°C° 0 mm 2 m/s 751 mmHg 85%
03:00 +14°C° 0 mm 2 m/s 751 mmHg 88%
04:00 +13°C° 0 mm 2 m/s 751 mmHg 90%
05:00 +13°C° 0 mm 2 m/s 752 mmHg 92%
06:00 +14°C° 0 mm 2 m/s 752 mmHg 87%
07:00 +15°C° 0 mm 2 m/s 752 mmHg 83%
08:00 +16°C° 0 mm 3 m/s 752 mmHg 78%
09:00 +17°C° 0 mm 3 m/s 752 mmHg 70%
10:00 +19°C° 0 mm 3 m/s 753 mmHg 62%
11:00 +20°C° 0 mm 3 m/s 753 mmHg 54%
12:00 +21°C° 0 mm 3 m/s 753 mmHg 50%
13:00 +22°C° 0 mm 4 m/s 753 mmHg 46%
14:00 +25°C° 0 mm 4 m/s 753 mmHg 41%
15:00 +24°C° 0 mm 3 m/s 753 mmHg 43%
16:00 +22°C° 0 mm 3 m/s 753 mmHg 45%
17:00 +23°C° 0 mm 2 m/s 753 mmHg 47%
18:00 +21°C° 0 mm 2 m/s 754 mmHg 49%
19:00 +20°C° 0 mm 3 m/s 755 mmHg 52%
20:00 +19°C° 0 mm 3 m/s 755 mmHg 54%
21:00 +19°C° 0 mm 3 m/s 755 mmHg 57%
22:00 +18°C° 0 mm 2 m/s 755 mmHg 59%
23:00 +17°C° 0 mm 2 m/s 756 mmHg 62%

3 Outubro, Sábado

Tempo Temperatura Precipitação Vento Pressão Humidade
00:00 +17°C° 0 mm 2 m/s 756 mmHg 62%
01:00 +18°C° 0 mm 1 m/s 756 mmHg 63%
02:00 +16°C° 0 mm 1 m/s 756 mmHg 63%
03:00 +16°C° 0 mm 1 m/s 756 mmHg 64%
04:00 +16°C° 0 mm 1 m/s 756 mmHg 64%
05:00 +16°C° 0 mm 2 m/s 757 mmHg 65%
06:00 +17°C° 0 mm 2 m/s 757 mmHg 62%
07:00 +18°C° 0 mm 2 m/s 757 mmHg 60%
08:00 +19°C° 0 mm 2 m/s 757 mmHg 57%
09:00 +21°C° 0 mm 3 m/s 757 mmHg 50%
10:00 +23°C° 0 mm 4 m/s 757 mmHg 44%
11:00 +26°C° 0 mm 4 m/s 757 mmHg 37%
12:00 +27°C° 0 mm 5 m/s 757 mmHg 35%
13:00 +28°C° 0 mm 5 m/s 757 mmHg 34%
14:00 +29°C° 0 mm 5 m/s 757 mmHg 32%
15:00 +28°C° 0 mm 4 m/s 756 mmHg 34%
16:00 +27°C° 0 mm 3 m/s 756 mmHg 36%
17:00 +26°C° 0 mm 3 m/s 756 mmHg 37%
18:00 +25°C° 0 mm 3 m/s 756 mmHg 42%
19:00 +23°C° 0 mm 4 m/s 757 mmHg 46%
20:00 +21°C° 0 mm 5 m/s 757 mmHg 50%
21:00 +21°C° 0 mm 5 m/s 757 mmHg 55%
22:00 +20°C° 0 mm 6 m/s 757 mmHg 59%
23:00 +19°C° 0 mm 6 m/s 757 mmHg 63%

4 Outubro, Domingo

Tempo Temperatura Precipitação Vento Pressão Humidade
00:00 +19°C° 0 mm 6 m/s 757 mmHg 66%
01:00 +19°C° 0 mm 6 m/s 757 mmHg 68%
02:00 +19°C° 0 mm 6 m/s 757 mmHg 70%
03:00 +17°C° 0 mm 5 m/s 757 mmHg 73%
04:00 +17°C° 0 mm 5 m/s 757 mmHg 75%
05:00 +16°C° 0 mm 5 m/s 757 mmHg 78%
06:00 +17°C° 0 mm 6 m/s 757 mmHg 76%
07:00 +18°C° 0 mm 7 m/s 757 mmHg 74%
08:00 +20°C° 0 mm 7 m/s 757 mmHg 72%
09:00 +22°C° 0 mm 8 m/s 757 mmHg 62%
10:00 +24°C° 0 mm 8 m/s 757 mmHg 53%
11:00 +27°C° 0 mm 8 m/s 757 mmHg 44%
12:00 +28°C° 0 mm 9 m/s 757 mmHg 42%
13:00 +28°C° 0 mm 9 m/s 757 mmHg 39%
14:00 +29°C° 0 mm 9 m/s 757 mmHg 37%
15:00 +28°C° 0 mm 8 m/s 757 mmHg 40%
16:00 +27°C° 0 mm 7 m/s 757 mmHg 43%
17:00 +26°C° 0 mm 6 m/s 756 mmHg 46%
18:00 +24°C° 0 mm 7 m/s 757 mmHg 54%
19:00 +22°C° 0 mm 7 m/s 757 mmHg 62%
20:00 +21°C° 0 mm 7 m/s 757 mmHg 70%
21:00 +20°C° 0 mm 7 m/s 757 mmHg 75%
22:00 +20°C° 0 mm 7 m/s 757 mmHg 79%
23:00 +18°C° 0 mm 7 m/s 757 mmHg 84%
Mostrar mais